Regional Weather Roundup
Issued by NWS State College, PA

Home | Current Version | Previous Version | Graphics & Text | Print | Product List | Glossary Off
Versions: 1 2 3 4 5 6 7 8 9 10 11 12 13 14 15 16 17 18 19 20 21 22 23 24 25 26 27 28 29 30 31 32 33 34 35 36 37 38 39 40 41 42 43 44 45 46 47 48 49 50

000
ASUS41 KCTP 281703
RWRCTP

REGIONAL WEATHER ROUNDUP
NATIONAL WEATHER SERVICE STATE COLLEGE PA
100 PM EDT THU MAY 28 2015

Note: "fair" indicates few or no clouds below 12,000 feet with no
significant weather and/or obstructions to visibility.

* = STATION THAT DOES NOT REPORT PRECIPITATION /E.G. RAIN...SNOW...ETC/
    THUNDER OR FOG.

PAZ002>004-007>009-013>016-020>023-029>032-281800-
WESTERN PENNSYLVANIA

CITY           SKY/WX    TMP DP  RH WIND       PRES   REMARKS
ERIE           SUNNY     68  54  60 N6        30.29R
MEADVILLE      MOSUNNY   72  50  45 VRB5      30.30R
FRANKLIN*      MOSUNNY   72  54  53 NE6       30.31R
NEW CASTLE     FAIR      75  56  51 N3        30.29R
BEAVER COUNTY  SUNNY     73  59  60 CALM      30.29R
BUTLER*        PTSUNNY   72  57  60 NE8       30.30S
PITTSBURGH INT PTSUNNY   74  58  57 N8        30.27S
PITTSBURGH     PTSUNNY   76  56  49 NW8       30.25S
INDIANA*       MOSUNNY   75  55  50 CALM      30.30S
LATROBE        PTSUNNY   75  59  57 N7        30.28S
WASHINGTON CO* CLOUDY    75  61  60 NE3       30.28R
$$

PAZ004>006-010>012-017>019-024>028-033>037-041-042-045-046-049>053-281800-
CENTRAL PENNSYLVANIA

CITY           SKY/WX    TMP DP  RH WIND       PRES   REMARKS
BRADFORD         N/A    N/A N/A N/A VRB5      30.30R
DUBOIS         MOSUNNY   72  52  49 N10       30.29R
CLEARFIELD     MOSUNNY   78  52  40 N8        30.27S
JOHNSTOWN      PTSUNNY   73  54  51 NW7       30.28S
ALTOONA        MOSUNNY   79  57  46 N7        30.25S
STATE COLLEGE  MOSUNNY   79  54  41 NW7       30.24S
WILLIAMSPORT   SUNNY     83  55  38 W12G18    30.17F
SELINSGROVE    MOSUNNY   83  58  42 VRB5      30.19F
FT INDIANTOWN  MOSUNNY   81  64  56 VRB6      30.19S
CAPITAL CITY   PTSUNNY   82  62  50 NW7       30.18F
HARRISBURG     MOSUNNY   83  65  54 W9        30.17F
YORK           MOSUNNY   81  65  58 NW6       30.19F
$$

PAZ038>040-043-044-047-048-054-055-060>062-067>071-281800-
EASTERN PENNSYLVANIA

CITY           SKY/WX    TMP DP  RH WIND       PRES   REMARKS
SCRANTON       PTSUNNY   80  60  50 SW8       30.17S
MOUNT POCONO   PTSUNNY   76  60  57 W13       30.22R
ALLENTOWN      MOSUNNY   84  65  52 W6        30.16F
QUAKERTOWN*    MOSUNNY   82  68  61 SW8       30.19R
READING        MOSUNNY   84  64  50 W5        30.16F
LANCASTER      MOSUNNY   83  65  54 W9        30.18S
COATESVILLE    MOSUNNY   82  68  61 NW9       30.20S
POTTSTOWN      MOSUNNY   82  66  58 VRB6      30.18S
BLUE BELL      MOSUNNY   84  70  61 S5        30.16S
DOYLESTOWN     MOSUNNY   84  65  52 SW8       30.16S
WILLOW GROVE   NOT AVBL
NORTH PHILA    MOSUNNY   85  66  53 VRB6      30.17F
PHILADELPHIA   PTSUNNY   85  68  56 SW6       30.17S
$$


USA.gov is the U.S. government's official web portal to all federal, state and local government web resources and services.